Weather History for KCQM - October, 2013

Change the Weather History Date:

Monday, October 28, 2013

  Actual Average Record
Temperature  
Mean Temperature 24 °F -  
Max Temperature 33 °F 42 °F 60 °F (2005)
Min Temperature 15 °F 27 °F 15 °F (2013)
Degree Days  
Heating Degree Days 41    
Moisture  
Dew Point 16 °F    
Average Humidity 69    
Maximum Humidity 93    
Minimum Humidity 38    
Precipitation  
Precipitation 0.00 in - - ()
Sea Level Pressure  
Sea Level Pressure 30.45 in    
Wind  
Wind Speed 3 mph (North)    
Max Wind Speed 7 mph    
Max Gust Speed -    
Visibility 10 miles    
Events      
Averages and records for this station are not official NWS values.
T = Trace of Precipitation, MM = Missing Value Source: NWS Daily Summary

Daily Weather History Graph

Daily Weather History Graph

Search for Another Location

Airport or City:

Trip Planner

Search our weather history database for the weather conditions in past years. The results will help you decide how hot, cold, wet, or windy it might be!

Date:

Astronomy

Oct. 28, 2013 Rise Set
Actual Time 7:49 AM CDT 5:58 PM CDT
Civil Twilight 7:17 AM CDT 6:30 PM CDT
Nautical Twilight 6:41 AM CDT 7:07 PM CDT
Astronomical Twilight 6:05 AM CDT 7:42 PM CDT
Moon 1:17 AM CDT (10/28) 3:03 PM CDT (10/28)
Length of Visible Light 11h 13m
Length of Day
10h 09m
Waning Crescent, 34% of the Moon is Illuminated
Oct 28
Waning Crescent
Nov 3
New
Nov 9
First Quarter
Nov 17
Full
Nov 25
Last Quarter

Hourly Weather History & Observations

Time (CDT) Temp. Windchill Dew Point Humidity Pressure Visibility Wind Dir Wind Speed Gust Speed Precip Events Conditions
12:16 AM 26.6 °F 20.0 °F 15.8 °F 64% 30.30 in 10.0 mi NNE 5.8 mph - N/A   Clear
12:36 AM 26.6 °F 19.1 °F 15.8 °F 64% 30.31 in 10.0 mi NNE 6.9 mph - N/A   Clear
12:56 AM 26.6 °F 21.2 °F 15.8 °F 64% 30.32 in 10.0 mi NNE 4.6 mph - N/A   Clear
1:16 AM 24.8 °F 17.9 °F 15.8 °F 69% 30.33 in 10.0 mi NNE 5.8 mph - N/A   Clear
1:37 AM 24.8 °F 17.9 °F 15.8 °F 69% 30.35 in 10.0 mi NNE 5.8 mph - N/A   Clear
1:56 AM 24.8 °F 17.9 °F 15.8 °F 69% 30.36 in 10.0 mi NNE 5.8 mph - N/A   Scattered Clouds
2:16 AM 24.8 °F 19.1 °F 15.8 °F 69% 30.36 in 10.0 mi NNE 4.6 mph - N/A   Mostly Cloudy
2:37 AM 24.8 °F 16.9 °F 15.8 °F 69% 30.37 in 10.0 mi NNE 6.9 mph - N/A   Overcast
2:56 AM 24.8 °F 17.9 °F 15.8 °F 69% 30.37 in 10.0 mi North 5.8 mph - N/A   Overcast
3:16 AM 24.8 °F 17.9 °F 15.8 °F 69% 30.37 in 10.0 mi NNE 5.8 mph - N/A   Scattered Clouds
3:37 AM 24.8 °F 17.9 °F 15.8 °F 69% 30.38 in 10.0 mi NNE 5.8 mph - N/A   Clear
3:56 AM 24.8 °F 20.5 °F 15.8 °F 69% 30.39 in 10.0 mi North 3.5 mph - N/A   Clear
4:17 AM 24.8 °F 17.9 °F 15.8 °F 69% 30.39 in 10.0 mi NNE 5.8 mph - N/A   Clear
4:37 AM 23.0 °F 18.4 °F 15.8 °F 74% 30.40 in 10.0 mi NNE 3.5 mph - N/A   Clear
4:56 AM 23.0 °F 18.4 °F 15.8 °F 74% 30.41 in 10.0 mi NNE 3.5 mph - N/A   Clear
5:17 AM 21.2 °F - 15.8 °F 80% 30.42 in 10.0 mi Calm Calm - N/A   Clear
5:36 AM 21.2 °F - 15.8 °F 80% 30.42 in 10.0 mi Calm Calm - N/A   Clear
5:57 AM 21.2 °F - 15.8 °F 80% 30.43 in 10.0 mi Calm Calm - N/A   Clear
6:16 AM 21.2 °F - 15.8 °F 80% 30.44 in 10.0 mi Calm Calm - N/A   Clear
6:36 AM 19.4 °F - 15.8 °F 86% 30.44 in 10.0 mi Calm Calm - N/A   Clear
6:57 AM 17.6 °F - 14.0 °F 86% 30.45 in 10.0 mi Calm Calm - N/A   Clear
7:16 AM 15.8 °F - 12.2 °F 86% 30.46 in 10.0 mi Calm Calm - N/A   Clear
7:36 AM 15.8 °F - 12.2 °F 86% 30.47 in 10.0 mi Calm Calm - N/A   Clear
7:57 AM 15.8 °F - 12.2 °F 86% 30.47 in 10.0 mi Calm Calm - N/A   Clear
8:16 AM 15.8 °F - 14.0 °F 93% 30.48 in 10.0 mi Calm Calm - N/A   Clear
8:36 AM 15.8 °F - 14.0 °F 93% 30.49 in 10.0 mi Calm Calm - N/A   Clear
8:57 AM 17.6 °F - 15.8 °F 93% 30.49 in 10.0 mi Calm Calm - N/A   Clear
9:16 AM 21.2 °F - 17.6 °F 86% 30.50 in 10.0 mi Calm Calm - N/A   Clear
9:36 AM 24.8 °F - 17.6 °F 74% 30.51 in 10.0 mi Calm Calm - N/A   Clear
9:57 AM 26.6 °F - 17.6 °F 69% 30.51 in 10.0 mi Calm Calm - N/A   Clear
10:16 AM 26.6 °F 20.0 °F 17.6 °F 69% 30.51 in 10.0 mi ENE 5.8 mph - N/A   Clear
10:36 AM 28.4 °F - 17.6 °F 64% 30.52 in 10.0 mi Calm Calm - N/A   Clear
10:56 AM 28.4 °F 24.6 °F 17.6 °F 64% 30.52 in 10.0 mi NE 3.5 mph - N/A   Clear
11:16 AM 28.4 °F - 17.6 °F 64% 30.52 in 10.0 mi Calm Calm - N/A   Clear
11:37 AM 30.2 °F - 17.6 °F 60% 30.52 in 10.0 mi Calm Calm - N/A   Clear
11:56 AM 30.2 °F - 17.6 °F 60% 30.52 in 10.0 mi Calm Calm - N/A   Clear
12:16 PM 30.2 °F - 17.6 °F 60% 30.52 in 10.0 mi Calm Calm - N/A   Clear
12:37 PM 32.0 °F - 17.6 °F 55% 30.51 in 10.0 mi Calm Calm - N/A   Clear
12:56 PM 32.0 °F - 17.6 °F 55% 30.50 in 10.0 mi Calm Calm - N/A   Clear
1:16 PM 33.8 °F 30.8 °F 17.6 °F 52% 30.50 in 10.0 mi WSW 3.5 mph - N/A   Clear
1:37 PM 33.8 °F 29.6 °F 17.6 °F 52% 30.49 in 10.0 mi WNW 4.6 mph - N/A   Clear
1:56 PM 33.8 °F 30.8 °F 15.8 °F 48% 30.48 in 10.0 mi West 3.5 mph - N/A   Clear
2:16 PM 33.8 °F 30.8 °F 15.8 °F 48% 30.48 in 10.0 mi WNW 3.5 mph - N/A   Clear
2:37 PM 33.8 °F - 15.8 °F 48% 30.48 in 10.0 mi Calm Calm - N/A   Clear
2:56 PM 33.8 °F - 15.8 °F 48% 30.47 in 10.0 mi Calm Calm - N/A   Clear
3:16 PM 33.8 °F - 15.8 °F 48% 30.47 in 10.0 mi Calm Calm - N/A   Clear
3:37 PM 33.8 °F 28.6 °F 15.8 °F 48% 30.47 in 10.0 mi NW 5.8 mph - N/A   Clear
3:56 PM 33.8 °F 29.6 °F 15.8 °F 48% 30.46 in 10.0 mi West 4.6 mph - N/A   Clear
4:16 PM 33.8 °F - 12.2 °F 41% 30.46 in 10.0 mi Calm Calm - N/A   Clear
4:37 PM 33.8 °F - 10.4 °F 38% 30.45 in 10.0 mi Calm Calm - N/A   Clear
4:56 PM 33.8 °F - 12.2 °F 41% 30.46 in 10.0 mi Calm Calm - N/A   Clear
5:17 PM 33.8 °F - 12.2 °F 41% 30.45 in 10.0 mi Calm Calm - N/A   Clear
5:36 PM 32.0 °F - 12.2 °F 44% 30.45 in 10.0 mi Calm Calm - N/A   Clear
5:56 PM 30.2 °F - 12.2 °F 47% 30.45 in 10.0 mi Calm Calm - N/A   Clear
6:17 PM 28.4 °F - 12.2 °F 51% 30.45 in 10.0 mi Calm Calm - N/A   Clear
6:36 PM 28.4 °F - 12.2 °F 51% 30.45 in 10.0 mi Calm Calm - N/A   Clear
6:57 PM 24.8 °F - 15.8 °F 69% 30.45 in 10.0 mi Calm Calm - N/A   Clear
7:16 PM 24.8 °F - 15.8 °F 69% 30.45 in 10.0 mi Calm Calm - N/A   Clear
7:36 PM 23.0 °F - 15.8 °F 74% 30.45 in 10.0 mi Calm Calm - N/A   Clear
7:56 PM 23.0 °F - 15.8 °F 74% 30.45 in 10.0 mi Calm Calm - N/A   Clear
8:17 PM 24.8 °F - 15.8 °F 69% 30.46 in 10.0 mi Calm Calm - N/A   Clear
8:36 PM 21.2 °F - 15.8 °F 80% 30.46 in 10.0 mi Calm Calm - N/A   Clear
8:56 PM 19.4 °F - 15.8 °F 86% 30.45 in 10.0 mi Calm Calm - N/A   Clear
9:16 PM 19.4 °F - 15.8 °F 86% 30.45 in 10.0 mi Calm Calm - N/A   Clear
9:37 PM 19.4 °F - 15.8 °F 86% 30.45 in 10.0 mi Calm Calm - N/A   Clear
9:56 PM 19.4 °F - 15.8 °F 86% 30.46 in 10.0 mi Calm Calm - N/A   Clear
10:16 PM 19.4 °F - 15.8 °F 86% 30.46 in 10.0 mi Calm Calm - N/A   Clear
10:37 PM 19.4 °F - 15.8 °F 86% 30.46 in 10.0 mi Calm Calm - N/A   Clear
10:56 PM 19.4 °F - 15.8 °F 86% 30.46 in 10.0 mi Calm Calm - N/A   Clear
11:16 PM 19.4 °F - 15.8 °F 86% 30.45 in 10.0 mi Calm Calm - N/A   Clear
11:37 PM 19.4 °F - 17.6 °F 93% 30.46 in 10.0 mi Calm Calm - N/A   Clear
11:56 PM 19.4 °F - 15.8 °F 86% 30.45 in 10.0 mi Calm Calm - N/A   Clear